Location: Hains Lake
(37.8540°N, 99.8578°W)
Time: 23:22:50
(UTC+00:00)

A-11 Canister half - All Passes

Search period start: 18 April 2021 00:00
Search period end: 28 April 2021 00:00
Orbit: 1515 x 1685 km, 47.2° (Epoch: 18 April)

Date Brightness Start Highest point End Pass type
(mag) Time Alt. Az. Time Alt. Az. Time Alt. Az.
18 Apr - 01:07:09 10° SSE 01:11:03 13° ESE 01:14:58 10° E daylight
18 Apr - 03:05:18 10° SSW 03:14:20 57° SE 03:23:40 10° ENE visible
18 Apr - 05:09:55 10° WSW 05:19:18 64° NNW 05:29:04 10° ENE visible
18 Apr - 07:16:25 10° WNW 07:25:44 49° N 07:35:21 10° ENE visible
18 Apr - 09:22:03 10° WNW 09:31:57 75° NNE 09:42:06 10° ESE visible
18 Apr - 11:27:25 10° WNW 11:36:40 45° SW 11:46:04 10° SSE visible
19 Apr - 00:45:23 10° SE 00:48:15 12° ESE 00:51:08 10° ESE daylight
19 Apr - 02:42:32 10° SSW 02:51:28 54° SE 03:00:41 10° ENE visible
19 Apr - 04:46:58 10° WSW 04:56:20 66° NNW 05:06:05 10° ENE visible
19 Apr - 06:53:26 10° WNW 07:02:42 49° N 07:12:17 10° ENE visible
19 Apr - 08:59:07 10° WNW 09:08:58 72° NNE 09:19:05 10° ESE visible
19 Apr - 11:04:26 10° WNW 11:13:46 47° SW 11:23:17 10° SSE visible
20 Apr - 00:24:30 10° SE 00:25:27 10° ESE 00:26:25 10° ESE daylight
20 Apr - 02:19:47 10° SSW 02:28:36 50° SE 02:37:41 10° ENE visible
20 Apr - 04:24:00 10° WSW 04:33:22 68° NNW 04:43:06 10° ENE visible
20 Apr - 06:30:26 10° WNW 06:39:40 49° N 06:49:13 10° ENE visible
20 Apr - 08:36:12 10° WNW 08:45:59 70° NNE 08:56:04 10° ESE visible
20 Apr - 10:41:27 10° WNW 10:50:52 50° SW 11:00:30 10° SSE visible
20 Apr - 12:51:45 10° WSW 12:54:14 11° WSW 12:56:46 10° SW daylight
21 Apr - 01:57:02 10° SSW 02:05:44 47° SE 02:14:41 10° ENE visible
21 Apr - 04:01:03 10° WSW 04:10:24 70° NNW 04:20:07 10° ENE visible
21 Apr - 06:07:26 10° WNW 06:16:38 49° N 06:26:10 10° ENE visible
21 Apr - 08:13:16 10° WNW 08:22:59 67° NNE 08:33:02 10° ESE visible
21 Apr - 10:18:29 10° WNW 10:27:58 53° SW 10:37:42 10° SSE visible
21 Apr - 12:27:42 10° W 12:31:25 13° WSW 12:35:10 10° SW daylight
22 Apr - 01:34:19 10° SSW 01:42:53 44° SE 01:51:41 10° ENE visible
22 Apr - 03:38:06 10° WSW 03:47:26 73° NNW 03:57:09 10° ENE visible
22 Apr - 05:44:27 10° WNW 05:53:37 49° N 06:03:06 10° ENE visible
22 Apr - 07:50:20 10° WNW 08:00:00 65° NNE 08:10:00 10° ESE visible
22 Apr - 09:55:30 10° WNW 10:05:04 57° SW 10:14:51 10° SSE visible
22 Apr - 12:04:01 10° W 12:08:35 14° WSW 12:13:12 10° SSW daylight
23 Apr - 01:11:37 10° SSW 01:20:03 41° SE 01:28:39 10° ENE daylight
23 Apr - 03:15:10 10° WSW 03:24:30 76° NNW 03:34:11 10° ENE visible
23 Apr - 05:21:28 10° WNW 05:30:35 49° N 05:40:04 10° ENE visible
23 Apr - 07:27:23 10° WNW 07:37:00 63° NNE 07:46:57 10° ESE visible
23 Apr - 09:32:33 10° WNW 09:42:09 60° SW 09:52:01 10° SE visible
23 Apr - 11:40:31 10° W 11:45:45 16° WSW 11:51:04 10° SSW daylight
24 Apr - 00:48:55 10° SSW 00:57:12 38° SE 01:05:38 10° ENE daylight
24 Apr - 02:52:14 10° WSW 03:01:33 79° NNW 03:11:13 10° ENE visible
24 Apr - 04:58:28 10° WNW 05:07:35 49° N 05:17:02 10° ENE visible
24 Apr - 07:04:27 10° WNW 07:14:01 61° NNE 07:23:53 10° E visible
24 Apr - 09:09:36 10° WNW 09:19:14 63° SW 09:29:09 10° SE visible
24 Apr - 11:17:07 10° W 11:22:55 17° WSW 11:28:48 10° SSW visible
25 Apr - 00:26:16 10° SSW 00:34:22 36° SE 00:42:36 10° ENE daylight
25 Apr - 02:29:18 10° WSW 02:38:37 82° NNW 02:48:16 10° ENE visible
25 Apr - 04:35:28 10° W 04:44:34 50° N 04:53:59 10° ENE visible
25 Apr - 06:41:31 10° WNW 06:51:01 59° NNE 07:00:51 10° E visible
25 Apr - 08:46:39 10° WNW 08:56:19 67° SW 09:06:16 10° SE visible
25 Apr - 10:53:48 10° W 11:00:04 19° SW 11:06:26 10° SSW visible
26 Apr - 00:03:37 10° S 00:11:32 33° SE 00:19:33 10° ENE daylight
26 Apr - 02:06:23 10° WSW 02:15:41 85° NNW 02:25:18 10° ENE visible
26 Apr - 04:12:28 10° W 04:21:33 50° N 04:30:57 10° ENE visible
26 Apr - 06:18:36 10° WNW 06:28:01 58° NNE 06:37:47 10° E visible
26 Apr - 08:23:44 10° WNW 08:33:24 70° SW 08:43:22 10° SE visible
26 Apr - 10:30:33 10° W 10:37:13 21° SW 10:44:01 10° SSW visible
26 Apr - 23:41:01 10° S 23:48:42 31° SE 23:56:29 10° ENE daylight
27 Apr - 01:43:29 10° WSW 01:52:47 88° NNW 02:02:21 10° ENE visible
27 Apr - 03:49:29 10° W 03:58:33 51° N 04:07:56 10° ENE visible
27 Apr - 05:55:39 10° WNW 06:05:01 56° NNE 06:14:43 10° E visible
27 Apr - 08:00:48 10° WNW 08:10:29 74° SW 08:20:29 10° SE visible
27 Apr - 10:07:22 10° W 10:14:23 22° SW 10:21:33 10° S visible
27 Apr - 23:18:26 10° S 23:25:53 28° SE 23:33:25 10° ENE daylight
